Retour au catalogue

ARIANE 5 R/B

ActifSSO
NORAD 27387·ROCKET BODY·🇫🇷 France

Lancé Mar 1, 2002 depuis Guiana Space Centre

Loading…

Prochains Passages (prochaines 24 heures)

TLE

FraisSource: Space-Track

Époque: Sep 14, 2026, 07:48 UTC

1 27387U 02009B   26257.32504625  .00000019  00000-0  21968-4 0  9997
2 27387  98.8073 277.5413 0031325 221.3927 138.4884 14.36808079286113

Suivez ARIANE 5 R/B en temps réel avec AllMySat

Download on the App Store